Location: Donald C. Martin Observatory
(38.3885°N, 82.3916°W)
Time: 23:30:41
(UTC-05:00)

Daily predictions for brighter satellites

Satellite Brightness Start Highest point End
(mag) Time Altitude Azimuth Time Altitude Azimuth Time Altitude Azimuth
Meteor 1-25 Rocket 4.3 18:36:19 10° S 18:41:44 55° E 18:47:15 10° NNE
ERBS 2.6 18:38:16 10° NW 18:41:44 74° SW 18:45:11 10° SE
ALOS 3.4 18:38:19 10° ESE 18:41:54 22° ENE 18:45:29 10° NNE
Cosmos 1346 Rocket 2.9 18:39:31 10° NNW 18:43:28 79° W 18:47:21 10° S
deb Kosmos-1763 4.3 18:45:21 10° S 18:49:02 51° ESE 18:52:44 10° NNE
Cosmos 1975 Rocket 3.1 18:45:24 10° N 18:49:45 87° W 18:54:03 10° S
H-2A R/B 4.5 18:48:16 10° E 18:50:08 14° ENE 18:52:01 10° NE
SKYMED 2 4.0 18:46:11 10° N 18:50:31 68° WNW 18:54:49 10° SSW
Cosmos 1238 Rocket 4.0 18:54:30 10° NE 18:55:52 12° ENE 18:55:56 12° ENE
Cosmos 1812 2.7 18:55:23 10° N 18:59:14 63° E 19:03:02 10° SSE
Cosmos 1190 Rocket 3.9 18:56:18 10° S 19:01:28 75° ESE 19:06:40 10° NNE
Helios 1B rocket 4.2 19:02:25 13° E 19:02:25 13° E 19:03:57 10° ESE
Cosmos 1140 Rocket 4.3 19:00:54 10° SSE 19:05:08 27° E 19:09:23 10° NE
Cosmos 1536 Rocket 3.9 19:04:17 10° N 19:08:33 44° E 19:12:50 10° SSE
Nadezhda 1 Rocket 4.0 19:03:51 10° N 19:09:58 88° W 19:16:02 10° S
Spot 2 Rocket 4.0 19:08:05 10° SE 19:12:38 36° ENE 19:17:14 10° N
METEOR-M 4.1 19:07:28 10° SSE 19:12:49 89° ENE 19:18:12 10° NNW
NOAA 12 4.1 19:07:50 10° SSE 19:13:08 88° WSW 19:18:30 10° NNW
Cosmos 44 Rocket 4.0 19:08:59 10° NW 19:13:36 54° WSW 19:18:08 10° SSE
Cosmos 2360 Rocket 2.9 19:09:50 10° N 19:14:50 31° ENE 19:18:45 15° ESE
Resurs 01 Rocket 2.2 19:11:24 10° SE 19:15:25 36° ENE 19:19:27 10° N
Cosmos 1980 Rocket 4.0 19:10:27 10° NW 19:15:32 35° WSW 19:20:36 10° SSW
DNEPR-1 R/B 3.4 19:11:20 10° NNW 19:15:33 61° ENE 19:19:46 10° SE
GEOS 3 Rocket 3.6 19:13:45 10° NE 19:19:01 87° ESE 19:24:18 10° SW
Cosmos 2181 Rocket 4.2 19:15:06 10° N 19:21:07 49° E 19:27:11 10° SSE
Tiangong 2 1.2 19:18:29 10° WNW 19:21:32 55° NNE 19:22:43 31° E
CENTAUR R/B 3.9 19:14:04 10° NW 19:21:50 56° WSW 19:29:56 10° S
Cosmos 1602 4.0 19:18:23 10° SSE 19:22:02 41° E 19:25:43 10° NNE
SL-19 R/B 4.4 19:18:43 10° SE 19:24:08 53° ENE 19:29:52 10° N
ATLAS CENTAUR R/B 4.2 19:26:39 10° SSE 19:27:49 11° SE 19:27:49 11° SE
Cosmos 1954 Rocket 3.9 19:24:39 10° S 19:29:44 63° ESE 19:34:54 10° NNE
HJ-1C 3.3 19:26:43 10° SSE 19:30:04 68° ENE 19:33:26 10° N
BREEZE-M DEB (TANK) 4.4 19:28:24 10° NNW 19:31:22 30° NNE 19:33:50 22° ENE
Cosmos 1833 4.2 19:27:22 10° S 19:33:00 64° ESE 19:38:37 10° NNE
Cosmos 1633 2.4 19:33:15 10° S 19:36:55 73° E 19:40:36 10° NNE
SJ-6B 3.5 19:33:40 10° S 19:37:39 58° W 19:41:36 10° NNW
Cosmos 44 4.1 19:33:42 10° NW 19:37:55 46° WSW 19:42:00 10° S
Cosmos 2333 Rocket 4.2 19:37:27 10° NNE 19:38:32 11° NE 19:38:32 11° NE
Cosmos 1300 Rocket 3.4 19:35:26 10° S 19:39:47 69° E 19:44:12 10° NNE
Cosmos 2184 Rocket 4.4 19:34:15 10° SSE 19:39:59 37° E 19:45:40 10° NNE
TSX-5 3.2 19:37:10 10° SSW 19:40:23 84° WNW 19:41:56 28° NNE
Cosmos 2074 Rocket 4.4 19:34:44 10° SSE 19:40:26 39° E 19:46:10 10° NNE
Resurs 1-3 3.6 19:36:16 10° SSE 19:40:33 57° ENE 19:44:52 10° N
Cosmos 1709 Rocket 4.0 19:35:22 10° S 19:41:37 85° W 19:47:50 10° N
FengYun 1-2 T 4.1 19:37:19 10° SSE 19:42:47 87° ENE 19:48:19 10° NNW
Gbstr 26 Del rocket 2.9 19:43:43 10° SSW 19:47:21 45° SE 19:47:21 45° SE
SL-16 R/B 2.9 19:41:52 10° NNW 19:47:25 55° WSW 19:52:54 10° S
Meteor 1-19 Rocket 4.1 19:44:42 10° N 19:50:22 72° E 19:56:06 10° SSE
Cosmos 1340 3.1 19:55:39 10° NNW 19:59:24 61° W 20:03:07 10° S
Cosmos 1818 4.3 19:54:25 10° SW 19:59:44 52° NW 20:05:04 10° NNE
Meteor 1-5 Rocket 4.5 19:54:13 10° SSE 19:59:53 47° E 20:05:34 10° NNE
Cosmos 1536 2.9 19:57:54 10° S 20:01:14 58° SSE 20:01:14 58° SSE
Cosmos 1461 3.7 19:58:33 10° NW 20:02:26 48° WSW 20:04:50 22° S
Meteor 1-13 Rocket 4.3 19:58:02 10° NNW 20:03:35 76° W 20:09:11 10° S
Cosmos 2322 Rocket 3.7 20:00:51 10° NW 20:05:56 36° WSW 20:11:00 10° S
Cosmos 1741 Rocket 3.9 20:03:20 10° S 20:08:31 65° ESE 20:09:41 50° NE
Okean 1 Rocket 3.2 20:04:12 10° SSW 20:08:39 75° W 20:13:10 10° N
Helios 1A 3.0 20:11:47 67° N 20:11:47 67° N 20:15:27 10° N
CZ-2D R/B 3.4 20:12:51 72° W 20:12:51 72° W 20:16:35 10° NNW
DELTA 2 R/B (1) 3.4 20:11:17 10° WNW 20:16:55 83° SSW 20:17:41 67° ESE
Cosmos 2322 3.6 20:11:23 10° NNW 20:17:09 88° ENE 20:18:56 46° SSE
ATLAS 2A CENTAUR R/B 4.0 20:14:48 10° SW 20:18:00 21° SSE 20:18:32 21° SSE
Meteor 1-23 Rocket 4.1 20:12:16 10° N 20:18:06 73° E 20:19:24 53° SE
ALOS 3.9 20:14:52 10° SSW 20:19:06 34° W 20:23:22 10° NNW
Cosmos 1570 Rocket 4.1 20:17:06 10° NNW 20:21:41 61° NNE 20:21:41 61° NNE
Spot 1 4.4 20:24:22 58° NW 20:24:22 58° NW 20:27:53 10° NNW
H-2A R/B 4.2 20:21:59 19° SSW 20:24:05 35° W 20:27:32 10° NNW
Okean 1-7 Rocket 3.8 20:20:36 10° N 20:24:48 71° NW 20:24:48 71° NW
Meteor 2-4 Rocket 3.7 20:22:55 10° NNW 20:28:30 74° W 20:31:02 33° S
COSMOS 2428 3.1 20:23:26 10° NNW 20:27:55 49° NNE 20:27:55 49° NNE
Cosmos 2237 4.1 20:24:00 10° NNW 20:29:27 72° NE 20:29:27 72° NE
Helios 1B rocket 3.9 20:38:46 34° WSW 20:38:46 34° WSW 20:41:29 10° SW
Cosmos 2237 Rocket 4.2 20:36:38 10° N 20:37:59 15° NNE 20:37:59 15° NNE
Cosmos 2208 Rocket 4.5 20:39:49 10° NNW 20:44:13 58° NNW 20:44:13 58° NNW
Resurs 01 Rocket 4.2 20:48:54 10° SW 20:51:59 19° W 20:55:05 10° NW
Cosmos 2219 3.5 20:46:25 10° SSW 20:51:31 63° WSW 20:51:31 63° WSW
Cosmos 2360 Rocket 3.6 20:53:43 10° NW 20:58:48 35° WSW 21:00:38 28° SW
Cosmos 2219 Rocket 3.8 20:57:22 10° NNW 20:59:34 24° N 20:59:34 24° N
USA 229 DEB 4.2 21:09:41 10° NNW 21:15:01 54° NNW 21:15:01 54° NNW
USA 229 4.3 21:09:47 10° NNW 21:15:05 53° NNW 21:15:05 53° NNW
Cosmos 2333 Rocket 4.2 21:18:52 10° NNW 21:20:34 20° NNW 21:20:34 20° NNW
